Photometre #851[NE_1.6_Dp] Glasgow_MO AOT

File : 20220827_851.hum

27/08/2022,06:17:47,TEMP=8.4,BA=5.64,STAT.A,ExtBa=12.20
27/08/2022,06:21:23,TEMP=8.8,BA=5.64,STAT.D,ExtBa=12.10
27/08/2022,06:23:25,TEMP=9.3,BA=5.64,STAT.A,ExtBa=12.10
27/08/2022,06:27:23,TEMP=9.2,BA=5.64,STAT.D,ExtBa=12.10
27/08/2022,06:29:23,TEMP=9.7,BA=5.64,STAT.A,ExtBa=12.10
27/08/2022,06:35:49,TEMP=9.7,BA=5.64,STAT.D,ExtBa=12.10
27/08/2022,06:37:49,TEMP=10.2,BA=5.64,STAT.A,ExtBa=12.10
27/08/2022,06:41:34,TEMP=10.2,BA=5.64,STAT.A,ExtBa=12.10
27/08/2022,06:45:23,TEMP=10.5,BA=5.64,STAT.D,ExtBa=12.10
27/08/2022,06:48:23,TEMP=10.7,BA=5.64,STAT.D,ExtBa=12.00
27/08/2022,06:50:52,TEMP=10.9,BA=5.64,STAT.A,ExtBa=12.00
27/08/2022,06:54:23,TEMP=10.9,BA=5.64,STAT.D,ExtBa=12.00
27/08/2022,06:57:23,TEMP=11.1,BA=5.64,STAT.D,ExtBa=12.00
27/08/2022,07:00:23,TEMP=11.3,BA=5.64,STAT.D,ExtBa=12.00
27/08/2022,07:02:33,TEMP=11.7,BA=5.64,STAT.B,ExtBa=12.00
27/08/2022,07:11:14,TEMP=12.4,BA=5.64,STAT.A,ExtBa=12.00
27/08/2022,07:14:21,TEMP=12.3,BA=5.64,STAT.A,ExtBa=12.00
27/08/2022,07:18:24,TEMP=12.3,BA=5.64,STAT.D,ExtBa=12.00
27/08/2022,07:21:22,TEMP=12.5,BA=5.64,STAT.A,ExtBa=12.00
27/08/2022,07:24:23,TEMP=12.7,BA=5.64,STAT.D,ExtBa=12.00
27/08/2022,07:27:24,TEMP=12.9,BA=5.64,STAT.D,ExtBa=12.00
27/08/2022,07:29:24,TEMP=13.3,BA=5.64,STAT.A,ExtBa=12.00
27/08/2022,07:35:59,TEMP=13.3,BA=5.64,STAT.D,ExtBa=12.00
27/08/2022,07:38:27,TEMP=13.7,BA=5.64,STAT.C,ExtBa=12.00
27/08/2022,08:03:20,TEMP=15.7,BA=5.64,STAT.A,ExtBa=12.00
27/08/2022,08:06:38,TEMP=15.6,BA=5.64,STAT.A,ExtBa=12.00
27/08/2022,08:09:24,TEMP=15.7,BA=5.64,STAT.D,ExtBa=12.00
27/08/2022,08:12:24,TEMP=15.9,BA=5.56,STAT.D,ExtBa=12.00
27/08/2022,08:15:24,TEMP=16.0,BA=5.56,STAT.D,ExtBa=12.00
27/08/2022,08:17:23,TEMP=16.4,BA=5.56,STAT.A,ExtBa=12.00
27/08/2022,08:21:24,TEMP=16.2,BA=5.64,STAT.D,ExtBa=12.00
27/08/2022,08:24:24,TEMP=16.3,BA=5.64,STAT.D,ExtBa=12.00
27/08/2022,08:27:24,TEMP=16.4,BA=5.64,STAT.D,ExtBa=12.00
27/08/2022,08:30:24,TEMP=16.6,BA=5.64,STAT.D,ExtBa=12.00
27/08/2022,08:33:24,TEMP=16.6,BA=5.64,STAT.D,ExtBa=12.00
27/08/2022,08:35:19,TEMP=17.0,BA=5.64,STAT.A,ExtBa=12.00
27/08/2022,08:39:24,TEMP=16.7,BA=5.64,STAT.D,ExtBa=12.00
27/08/2022,08:42:24,TEMP=17.0,BA=5.56,STAT.D,ExtBa=12.00
27/08/2022,08:45:24,TEMP=17.2,BA=5.56,STAT.D,ExtBa=12.00
27/08/2022,08:48:24,TEMP=17.4,BA=5.56,STAT.D,ExtBa=12.00
27/08/2022,08:51:24,TEMP=17.7,BA=5.60,STAT.D,ExtBa=12.00
27/08/2022,08:54:24,TEMP=17.9,BA=5.60,STAT.D,ExtBa=12.00
27/08/2022,08:57:24,TEMP=18.1,BA=5.60,STAT.D,ExtBa=12.00
27/08/2022,08:59:24,TEMP=18.5,BA=5.60,STAT.B,ExtBa=12.00
27/08/2022,09:08:22,TEMP=18.9,BA=5.56,STAT.D,ExtBa=11.90
27/08/2022,09:12:24,TEMP=18.8,BA=5.52,STAT.D,ExtBa=12.00
27/08/2022,09:15:24,TEMP=19.1,BA=5.52,STAT.D,ExtBa=12.00
27/08/2022,09:18:24,TEMP=19.3,BA=5.52,STAT.D,ExtBa=12.00
27/08/2022,09:20:27,TEMP=19.7,BA=5.60,STAT.F,ExtBa=12.00
27/08/2022,09:44:34,TEMP=21.1,BA=5.52,STAT.D,ExtBa=11.90
27/08/2022,09:48:24,TEMP=21.0,BA=5.52,STAT.D,ExtBa=12.00
27/08/2022,09:50:29,TEMP=21.4,BA=5.52,STAT.D,ExtBa=12.00
27/08/2022,09:54:24,TEMP=21.3,BA=5.52,STAT.D,ExtBa=12.00
27/08/2022,09:57:24,TEMP=21.3,BA=5.52,STAT.D,ExtBa=12.00
27/08/2022,10:00:24,TEMP=21.3,BA=5.60,STAT.D,ExtBa=12.00
27/08/2022,10:03:24,TEMP=21.3,BA=5.60,STAT.D,ExtBa=12.00
27/08/2022,10:05:25,TEMP=21.5,BA=5.60,STAT.D,ExtBa=12.00
27/08/2022,10:09:24,TEMP=20.9,BA=5.60,STAT.D,ExtBa=12.00
27/08/2022,10:12:24,TEMP=20.7,BA=5.52,STAT.D,ExtBa=12.00
27/08/2022,10:15:24,TEMP=20.5,BA=5.52,STAT.D,ExtBa=12.00
27/08/2022,10:18:24,TEMP=20.4,BA=5.52,STAT.D,ExtBa=12.00
27/08/2022,10:20:34,TEMP=20.7,BA=5.52,STAT.F,ExtBa=12.00
27/08/2022,10:46:50,TEMP=22.0,BA=5.52,STAT.D,ExtBa=12.00
27/08/2022,10:50:26,TEMP=22.0,BA=5.60,STAT.D,ExtBa=12.00
27/08/2022,10:54:25,TEMP=22.1,BA=5.60,STAT.D,ExtBa=12.00
27/08/2022,10:57:25,TEMP=22.2,BA=5.60,STAT.D,ExtBa=12.00
27/08/2022,11:00:24,TEMP=22.2,BA=5.60,STAT.D,ExtBa=12.00
27/08/2022,11:03:25,TEMP=22.2,BA=5.60,STAT.D,ExtBa=12.00
27/08/2022,11:05:23,TEMP=22.4,BA=5.60,STAT.D,ExtBa=12.00
27/08/2022,11:18:24,TEMP=20.3,BA=5.60,STAT.D,ExtBa=12.00
27/08/2022,11:20:27,TEMP=20.8,BA=5.60,STAT.F,ExtBa=12.00
27/08/2022,11:44:42,TEMP=21.4,BA=5.52,STAT.D,ExtBa=11.90
27/08/2022,11:48:25,TEMP=21.2,BA=5.52,STAT.D,ExtBa=12.00
27/08/2022,11:50:26,TEMP=21.5,BA=5.52,STAT.D,ExtBa=12.00
27/08/2022,11:54:25,TEMP=21.3,BA=5.52,STAT.D,ExtBa=12.00
27/08/2022,11:57:25,TEMP=21.6,BA=5.52,STAT.D,ExtBa=12.00
27/08/2022,12:00:25,TEMP=21.7,BA=5.64,STAT.D,ExtBa=12.00
27/08/2022,12:03:25,TEMP=22.0,BA=5.64,STAT.D,ExtBa=12.00
27/08/2022,12:05:26,TEMP=22.3,BA=5.64,STAT.D,ExtBa=12.00
27/08/2022,12:11:58,TEMP=22.3,BA=5.52,STAT.D,ExtBa=12.00
27/08/2022,12:15:25,TEMP=22.5,BA=5.52,STAT.D,ExtBa=12.00
27/08/2022,12:20:27,TEMP=22.1,BA=5.64,STAT.F,ExtBa=12.00
27/08/2022,12:47:12,TEMP=22.5,BA=5.52,STAT.D,ExtBa=11.90
27/08/2022,12:50:26,TEMP=21.9,BA=5.52,STAT.D,ExtBa=12.00
27/08/2022,12:54:25,TEMP=21.5,BA=5.52,STAT.D,ExtBa=12.00
27/08/2022,12:57:24,TEMP=21.4,BA=5.52,STAT.D,ExtBa=12.00
27/08/2022,13:05:26,TEMP=20.9,BA=5.64,STAT.D,ExtBa=12.00
27/08/2022,13:11:54,TEMP=20.9,BA=5.52,STAT.D,ExtBa=12.00
27/08/2022,13:15:25,TEMP=21.0,BA=5.52,STAT.D,ExtBa=12.00
27/08/2022,13:18:25,TEMP=21.1,BA=5.52,STAT.D,ExtBa=12.00
27/08/2022,13:20:27,TEMP=21.4,BA=5.52,STAT.F,ExtBa=12.00
27/08/2022,13:35:26,TEMP=20.4,BA=5.60,STAT.D,ExtBa=12.00
27/08/2022,13:48:24,TEMP=19.7,BA=5.64,STAT.D,ExtBa=12.00
27/08/2022,13:50:25,TEMP=20.1,BA=5.60,STAT.D,ExtBa=12.00
27/08/2022,14:03:24,TEMP=20.0,BA=5.64,STAT.D,ExtBa=12.00
27/08/2022,14:05:25,TEMP=20.4,BA=5.64,STAT.D,ExtBa=12.00
27/08/2022,14:18:24,TEMP=20.4,BA=5.64,STAT.D,ExtBa=12.00
27/08/2022,14:20:27,TEMP=20.9,BA=5.56,STAT.F,ExtBa=12.00
27/08/2022,14:33:24,TEMP=21.2,BA=5.64,STAT.D,ExtBa=12.00
27/08/2022,14:35:25,TEMP=21.7,BA=5.64,STAT.D,ExtBa=12.00
27/08/2022,14:48:24,TEMP=21.7,BA=5.64,STAT.D,ExtBa=12.00
27/08/2022,14:50:25,TEMP=22.2,BA=5.60,STAT.D,ExtBa=12.00
27/08/2022,15:03:24,TEMP=21.9,BA=5.64,STAT.D,ExtBa=12.00
27/08/2022,15:05:25,TEMP=22.3,BA=5.64,STAT.D,ExtBa=12.00
27/08/2022,15:09:24,TEMP=22.1,BA=5.64,STAT.D,ExtBa=12.00
27/08/2022,15:12:24,TEMP=22.1,BA=5.56,STAT.D,ExtBa=12.00
27/08/2022,15:15:24,TEMP=22.1,BA=5.56,STAT.D,ExtBa=12.00
27/08/2022,15:18:24,TEMP=22.2,BA=5.56,STAT.D,ExtBa=12.00
27/08/2022,15:20:27,TEMP=22.6,BA=5.60,STAT.F,ExtBa=12.00
27/08/2022,15:46:34,TEMP=24.8,BA=5.52,STAT.D,ExtBa=11.90
27/08/2022,15:49:56,TEMP=24.4,BA=5.52,STAT.B,ExtBa=12.00
27/08/2022,16:00:24,TEMP=23.7,BA=5.64,STAT.D,ExtBa=11.90
27/08/2022,16:03:24,TEMP=23.5,BA=5.64,STAT.D,ExtBa=12.00
27/08/2022,16:05:57,TEMP=23.3,BA=5.64,STAT.A,ExtBa=12.00
27/08/2022,16:09:24,TEMP=22.8,BA=5.64,STAT.D,ExtBa=12.00
27/08/2022,16:12:24,TEMP=22.6,BA=5.52,STAT.D,ExtBa=12.00
27/08/2022,16:15:24,TEMP=22.3,BA=5.52,STAT.D,ExtBa=12.00
27/08/2022,16:18:24,TEMP=22.1,BA=5.52,STAT.D,ExtBa=12.00
27/08/2022,16:21:24,TEMP=21.9,BA=5.56,STAT.D,ExtBa=12.00
27/08/2022,16:24:25,TEMP=21.8,BA=5.56,STAT.A,ExtBa=12.00
27/08/2022,16:27:24,TEMP=21.6,BA=5.56,STAT.D,ExtBa=12.00
27/08/2022,16:30:24,TEMP=21.5,BA=5.64,STAT.D,ExtBa=12.00
27/08/2022,16:33:24,TEMP=21.4,BA=5.64,STAT.D,ExtBa=11.90
27/08/2022,16:36:24,TEMP=21.4,BA=5.64,STAT.D,ExtBa=12.00
27/08/2022,16:39:22,TEMP=21.4,BA=5.64,STAT.A,ExtBa=12.00
27/08/2022,16:51:23,TEMP=20.8,BA=5.64,STAT.D,ExtBa=12.00
27/08/2022,16:53:24,TEMP=21.2,BA=5.64,STAT.A,ExtBa=12.00
27/08/2022,17:02:25,TEMP=20.6,BA=5.64,STAT.C,ExtBa=12.00
27/08/2022,17:11:33,TEMP=20.4,BA=5.64,STAT.A,ExtBa=12.00
27/08/2022,17:19:30,TEMP=20.2,BA=5.64,STAT.A,ExtBa=12.00
27/08/2022,17:29:48,TEMP=19.7,BA=5.56,STAT.A,ExtBa=12.00
27/08/2022,17:32:44,TEMP=19.7,BA=5.52,STAT.A,ExtBa=12.00
27/08/2022,17:38:19,TEMP=19.3,BA=5.52,STAT.B,ExtBa=12.00
27/08/2022,17:50:00,TEMP=18.6,BA=5.60,STAT.A,ExtBa=12.00
27/08/2022,17:59:18,TEMP=18.0,BA=5.56,STAT.A,ExtBa=12.00
27/08/2022,18:06:53,TEMP=17.7,BA=5.56,STAT.A,ExtBa=12.00
27/08/2022,18:09:23,TEMP=17.8,BA=5.56,STAT.D,ExtBa=12.00
27/08/2022,18:12:23,TEMP=17.7,BA=5.52,STAT.D,ExtBa=12.00
27/08/2022,18:14:24,TEMP=17.9,BA=5.52,STAT.A,ExtBa=12.00
27/08/2022,18:18:23,TEMP=17.5,BA=5.52,STAT.D,ExtBa=12.00
27/08/2022,18:20:46,TEMP=17.8,BA=5.52,STAT.A,ExtBa=12.00
27/08/2022,18:23:05,TEMP=17.7,BA=5.52,STAT.A,ExtBa=12.00